When you browse on this site, cookies collect data to enhance your experience and personalize the content and advertising you see.
Visit our Privacy Policy to learn more. By continuing to use the site, you agree to this use of cookies and data.
  • In Hungary
  • List of Countries
  • For 7 days
  • Water Temperature
  • Weather Map
  • News
  • Weather Widgets
  • user-avatar
    Login

    Hourly Weather Zelenaya Dubrava

    Today, 23 August, Friday

    Time Temperature Precipitation Wind Pressure Humidity
    00:00 +13°C° 0 mm 3 mps 758 mmHg 89%
    01:00 +14°C° 0 mm 2 mps 759 mmHg 89%
    02:00 +12°C° 0 mm 3 mps 759 mmHg 89%
    03:00 +13°C° 0 mm 2 mps 759 mmHg 90%
    04:00 +13°C° 0 mm 2 mps 759 mmHg 90%
    05:00 +13°C° 0 mm 2 mps 759 mmHg 91%
    06:00 +14°C° 0 mm 2 mps 759 mmHg 85%
    07:00 +16°C° 0 mm 3 mps 759 mmHg 80%
    08:00 +17°C° 0 mm 3 mps 760 mmHg 73%
    09:00 +19°C° 0 mm 3 mps 760 mmHg 66%
    10:00 +20°C° 0 mm 3 mps 759 mmHg 60%
    11:00 +21°C° 0 mm 3 mps 759 mmHg 53%
    12:00 +22°C° 0 mm 3 mps 759 mmHg 52%
    13:00 +22°C° 0 mm 3 mps 759 mmHg 51%
    14:00 +24°C° 0 mm 3 mps 759 mmHg 49%
    15:00 +24°C° 0 mm 3 mps 759 mmHg 53%
    16:00 +22°C° 0 mm 3 mps 758 mmHg 56%
    17:00 +22°C° 0 mm 3 mps 758 mmHg 59%
    18:00 +20°C° 0 mm 2 mps 758 mmHg 64%
    19:00 +18°C° 0 mm 2 mps 758 mmHg 70%
    20:00 +16°C° 0 mm 2 mps 758 mmHg 75%
    21:00 +15°C° 0 mm 2 mps 758 mmHg 77%
    22:00 +15°C° 0 mm 2 mps 758 mmHg 80%
    23:00 +14°C° 0 mm 1 mps 758 mmHg 82%

    Tomorrow, 24 August, Saturday

    Time Temperature Precipitation Wind Pressure Humidity
    00:00 +14°C° 0 mm 1 mps 758 mmHg 84%
    01:00 +13°C° 0 mm 1 mps 758 mmHg 85%
    02:00 +13°C° 0 mm 1 mps 758 mmHg 87%
    03:00 +12°C° 0 mm 1 mps 758 mmHg 87%
    04:00 +12°C° 0 mm 1 mps 758 mmHg 88%
    05:00 +12°C° 0 mm 1 mps 758 mmHg 88%
    06:00 +14°C° 0 mm 1 mps 758 mmHg 82%
    07:00 +16°C° 0 mm 1 mps 758 mmHg 76%
    08:00 +19°C° 0 mm 1 mps 758 mmHg 70%
    09:00 +20°C° 0 mm 1 mps 758 mmHg 64%
    10:00 +22°C° 0 mm 1 mps 758 mmHg 58%
    11:00 +23°C° 0 mm 1 mps 758 mmHg 52%
    12:00 +24°C° 0 mm 1 mps 757 mmHg 50%
    13:00 +24°C° 0 mm 1 mps 757 mmHg 47%
    14:00 +25°C° 0 mm 1 mps 757 mmHg 45%
    15:00 +25°C° 0 mm 1 mps 757 mmHg 49%
    16:00 +24°C° 0 mm 1 mps 756 mmHg 53%
    17:00 +24°C° 0 mm 1 mps 756 mmHg 57%
    18:00 +22°C° 0 mm 1 mps 756 mmHg 63%
    19:00 +20°C° 0 mm 1 mps 756 mmHg 68%
    20:00 +18°C° 0 mm 1 mps 756 mmHg 73%
    21:00 +18°C° 0 mm 1 mps 756 mmHg 76%
    22:00 +16°C° 0 mm 1 mps 756 mmHg 78%
    23:00 +15°C° 0 mm 1 mps 756 mmHg 81%

    Day after tomorrow, 25 August, Sunday

    Time Temperature Precipitation Wind Pressure Humidity
    00:00 +15°C° 0 mm 1 mps 756 mmHg 83%
    01:00 +15°C° 0 mm 1 mps 756 mmHg 84%
    02:00 +15°C° 0 mm 1 mps 756 mmHg 86%
    03:00 +14°C° 0 mm 1 mps 756 mmHg 87%
    04:00 +14°C° 0 mm 1 mps 756 mmHg 89%
    05:00 +14°C° 0 mm 1 mps 756 mmHg 90%
    06:00 +16°C° 0 mm 1 mps 756 mmHg 85%
    07:00 +18°C° 0 mm 2 mps 757 mmHg 81%
    08:00 +19°C° 0 mm 2 mps 757 mmHg 76%
    09:00 +21°C° 0 mm 2 mps 757 mmHg 72%
    10:00 +23°C° 0 mm 2 mps 757 mmHg 67%
    11:00 +25°C° 0 mm 2 mps 757 mmHg 63%
    12:00 +25°C° 0 mm 2 mps 757 mmHg 60%
    13:00 +26°C° 0 mm 2 mps 757 mmHg 57%
    14:00 +26°C° 0 mm 2 mps 757 mmHg 53%
    15:00 +26°C° 0 mm 2 mps 757 mmHg 56%
    16:00 +25°C° 0 mm 2 mps 756 mmHg 58%
    17:00 +25°C° 0 mm 2 mps 756 mmHg 60%
    18:00 +23°C° 0 mm 2 mps 756 mmHg 66%
    19:00 +20°C° 0 mm 2 mps 757 mmHg 71%
    20:00 +18°C° 0 mm 2 mps 757 mmHg 77%
    21:00 +17°C° 0 mm 2 mps 757 mmHg 80%
    22:00 +17°C° 0 mm 2 mps 757 mmHg 83%
    23:00 +16°C° 0 mm 2 mps 757 mmHg 85%

    26 August, Monday

    Time Temperature Precipitation Wind Pressure Humidity
    00:00 +15°C° 0 mm 2 mps 757 mmHg 86%
    01:00 +15°C° 0 mm 2 mps 757 mmHg 87%
    02:00 +14°C° 0 mm 2 mps 757 mmHg 88%
    03:00 +14°C° 0 mm 2 mps 757 mmHg 89%
    04:00 +14°C° 0 mm 1 mps 757 mmHg 89%
    05:00 +13°C° 0 mm 1 mps 757 mmHg 89%
    06:00 +15°C° 0 mm 1 mps 757 mmHg 83%
    07:00 +18°C° 0 mm 1 mps 757 mmHg 77%
    08:00 +18°C° 0 mm 2 mps 758 mmHg 71%
    09:00 +20°C° 0 mm 2 mps 758 mmHg 66%
    10:00 +21°C° 0 mm 2 mps 758 mmHg 62%
    11:00 +24°C° 0 mm 2 mps 758 mmHg 57%
    12:00 +25°C° 0 mm 1 mps 757 mmHg 55%
    13:00 +25°C° 0 mm 1 mps 757 mmHg 52%
    14:00 +26°C° 0 mm 1 mps 757 mmHg 50%
    15:00 +26°C° 0 mm 1 mps 756 mmHg 51%
    16:00 +25°C° 0 mm 1 mps 756 mmHg 52%
    17:00 +23°C° 0 mm 0 mps 756 mmHg 54%
    18:00 +23°C° 0 mm 1 mps 756 mmHg 60%
    19:00 +21°C° 0 mm 1 mps 756 mmHg 65%
    20:00 +19°C° 0 mm 1 mps 756 mmHg 71%
    21:00 +18°C° 0 mm 1 mps 756 mmHg 73%
    22:00 +18°C° 0 mm 1 mps 756 mmHg 76%
    23:00 +16°C° 0 mm 1 mps 756 mmHg 79%

    27 August, Tuesday

    Time Temperature Precipitation Wind Pressure Humidity
    00:00 +16°C° 0 mm 1 mps 756 mmHg 80%
    01:00 +15°C° 0 mm 0 mps 756 mmHg 81%
    02:00 +14°C° 0 mm 0 mps 756 mmHg 83%
    03:00 +14°C° 0 mm 0 mps 756 mmHg 83%
    04:00 +15°C° 0 mm 1 mps 756 mmHg 83%
    05:00 +15°C° 0 mm 1 mps 756 mmHg 83%
    06:00 +18°C° 0 mm 1 mps 756 mmHg 79%
    07:00 +19°C° 0 mm 1 mps 756 mmHg 75%
    08:00 +20°C° 0 mm 2 mps 756 mmHg 71%
    09:00 +21°C° 0 mm 2 mps 756 mmHg 67%
    10:00 +24°C° 0 mm 2 mps 756 mmHg 63%
    11:00 +25°C° 0 mm 2 mps 756 mmHg 59%
    12:00 +26°C° 0 mm 2 mps 755 mmHg 58%
    13:00 +26°C° 0 mm 3 mps 755 mmHg 57%
    14:00 +27°C° 0 mm 3 mps 755 mmHg 56%
    15:00 +26°C° 0 mm 3 mps 755 mmHg 59%
    16:00 +26°C° 0 mm 3 mps 755 mmHg 62%
    17:00 +26°C° 0 mm 3 mps 754 mmHg 65%
    18:00 +24°C° 0 mm 2 mps 754 mmHg 72%
    19:00 +21°C° 0 mm 2 mps 754 mmHg 79%
    20:00 +19°C° 0 mm 2 mps 754 mmHg 86%
    21:00 +19°C° 0 mm 2 mps 755 mmHg 87%
    22:00 +18°C° 0 mm 2 mps 755 mmHg 89%
    23:00 +17°C° 0 mm 2 mps 755 mmHg 90%

    28 August, Wednesday

    Time Temperature Precipitation Wind Pressure Humidity
    00:00 +17°C° 0 mm 2 mps 755 mmHg 91%
    01:00 +16°C° 0 mm 2 mps 755 mmHg 92%
    02:00 +15°C° 0 mm 2 mps 755 mmHg 92%
    03:00 +15°C° 0 mm 2 mps 755 mmHg 93%
    04:00 +15°C° 0 mm 2 mps 756 mmHg 93%
    05:00 +14°C° 0 mm 2 mps 756 mmHg 94%
    06:00 +16°C° 0 mm 2 mps 756 mmHg 89%
    07:00 +17°C° 0 mm 2 mps 756 mmHg 84%
    08:00 +18°C° 0 mm 3 mps 756 mmHg 80%
    09:00 +20°C° 0 mm 3 mps 756 mmHg 72%
    10:00 +21°C° 0 mm 3 mps 756 mmHg 65%
    11:00 +22°C° 0 mm 3 mps 756 mmHg 58%
    12:00 +24°C° 0 mm 3 mps 756 mmHg 56%
    13:00 +24°C° 0 mm 3 mps 756 mmHg 54%
    14:00 +25°C° 0 mm 3 mps 756 mmHg 51%
    15:00 +24°C° 0 mm 3 mps 756 mmHg 54%
    16:00 +22°C° 0 mm 3 mps 756 mmHg 57%
    17:00 +22°C° 0 mm 3 mps 756 mmHg 60%
    18:00 +20°C° 0 mm 3 mps 756 mmHg 64%
    19:00 +18°C° 0 mm 3 mps 756 mmHg 69%
    20:00 +16°C° 0 mm 3 mps 756 mmHg 73%
    21:00 +14°C° 0 mm 3 mps 756 mmHg 72%
    22:00 +13°C° 0 mm 3 mps 757 mmHg 71%
    23:00 +12°C° 0 mm 3 mps 757 mmHg 70%
    Show more